Flag for U.S.A. Weather past 2 weeks in Albany, New York, U.S.A.

Now
65 °F

Fog.


Feels Like: 65 °F
Forecast: 65 / 87 °F
Wind: No wind

Location: Albany County Airport

Current Time: Sep 3, 2015 at 7:08:44 AM

Latest Report: Sep 3, 2015 at 5:51 AM


Visibility: 9 mi

Pressure: 29.88 "Hg

Humidity: 91%

Dew point: 62 °F

Location of AlbanyLocation

Historic Weather in Albany — Graph

°F

Albany temperature yesterday

Maximum temperature yesterday: 89 °F (at 3:51 PM)
Minimum temperature yesterday: 64 °F (at 4:51 AM)
Average temperature yesterday: 76 °F

Past Weeks' High & Low Weather Summary

 TemperatureHumidityPressure
High90 °F (Aug 20, 2:51 PM)94% (Aug 31, 4:51 AM)30.22 "Hg (Aug 31, 4:51 AM)
Low55 °F (Aug 29, 4:51 AM)39% (Aug 20, 2:51 PM)29.80 "Hg (Aug 24, 4:51 PM)
Average72 °F67%30.01 "Hg
* Reported Aug 19 5:51 AM — Sep 3 5:51 AM, Albany, Weather by CustomWeather, © 2015

Note: Actual official high and low records may vary slightly from our data, if they occured in-between our weather recording intervals... More about our weather records

Advertising

Albany weather history for previous 24 hours

 ConditionsComfort  
Time TempWeatherWind HumidityBarometerVisibility
5:51 AM
Thu, Sep 3
65 °FFog.No wind91%29.88 "Hg9 mi
4:51 AM65 °FFog.No wind91%29.88 "Hg10 mi
3:51 AM67 °FFog.No wind90%29.87 "Hg10 mi
2:51 AM68 °FPassing clouds.No wind87%29.87 "Hg10 mi
1:51 AM70 °FPassing clouds.No wind84%29.88 "Hg10 mi
12:51 AM72 °FPassing clouds.No wind78%29.89 "Hg10 mi
11:51 PM
Wed, Sep 2
74 °FPassing clouds.No wind74%29.89 "Hg10 mi
10:51 PM75 °FPassing clouds.No wind71%29.89 "Hg10 mi
9:51 PM77 °FPassing clouds.No wind64%29.88 "Hg10 mi
8:51 PM76 °FPassing clouds.No wind69%29.89 "Hg10 mi
7:51 PM79 °FPassing clouds.3 mph65%29.89 "Hg10 mi
6:51 PM82 °FPassing clouds.7 mph56%29.88 "Hg10 mi
5:51 PM86 °FPassing clouds.8 mph51%29.88 "Hg10 mi
4:51 PM87 °FPassing clouds.6 mph48%29.89 "Hg10 mi
3:51 PM89 °FPassing clouds.8 mph45%29.91 "Hg10 mi
2:51 PM88 °FPassing clouds.No wind45%29.93 "Hg10 mi
1:51 PM86 °FPassing clouds.3 mph49%29.95 "Hg10 mi
12:51 PM85 °FScattered clouds.5 mph53%29.97 "Hg10 mi
11:51 AM81 °FScattered clouds.3 mph65%29.99 "Hg9 mi
10:51 AM78 °FPassing clouds.3 mph66%30.01 "Hg9 mi
9:51 AM73 °FSunny.3 mph74%30.02 "Hg8 mi
8:51 AM70 °FSunny.No wind81%30.03 "Hg6 mi
7:51 AM67 °FHaze.3 mph85%30.03 "Hg6 mi
Weather by CustomWeather, © 2015

See weather overviewHow to use our weather pages